Weather History for Jackson, TN

Change the Weather History Date:

Wednesday, February 20, 2013

  Actual Average Record
Temperature  
Mean Temperature 30 °F 44 °F  
Max Temperature 34 °F 54 °F 80 °F (1986)
Min Temperature 25 °F 33 °F 8 °F (1958)
Degree Days  
Heating Degree Days 35 21  
Month to date heating degree days 448 475  
Since 1 July heating degree days 2517 2724  
Cooling Degree Days 0 0  
Month to date cooling degree days 0 0  
Year to date cooling degree days 4 0  
Moisture  
Dew Point 17 °F    
Average Humidity 55    
Maximum Humidity 63    
Minimum Humidity 47    
Precipitation  
Precipitation 0.00 in 0.14 in 2.35 in (1961)
Month to date precipitation 2.43 2.99  
Year to date precipitation 10.72 7.06  
Snow  
Snow 0.00 in 0.00 in T in (1978)
Month to date snowfall 0.1 1.3  
Since 1 July snowfall 1.4 3.9  
Snow Depth 0.00 in    
Sea Level Pressure  
Sea Level Pressure 30.30 in    
Wind  
Wind Speed 6 mph (NE)    
Max Wind Speed 12 mph    
Max Gust Speed 16 mph    
Visibility 10 miles    
Events      
T = Trace of Precipitation, MM = Missing Value Source: NWS Daily Summary

Daily Weather History Graph

Daily Weather History Graph

Search for Another Location

Airport:

Trip Planner

Search our weather history database for the weather conditions in past years. The results will help you decide how hot, cold, wet, or windy it might be!

Date:

Astronomy

Feb. 20, 2013 Rise Set
Actual Time 6:36 AM CST 5:42 PM CST
Civil Twilight 6:10 AM CST 6:08 PM CST
Nautical Twilight 5:40 AM CST 6:38 PM CST
Astronomical Twilight 5:11 AM CST 7:07 PM CST
Moon 1:10 PM CST (2/20) 2:50 AM CST (2/20)
Length of Visible Light 11h 58m
Length of Day
11h 06m
Waxing Gibbous, 76% of the Moon is Illuminated
Feb 20
Waxing Gibbous
Feb 25
Full
Mar 4
Last Quarter
Mar 11
New
Mar 19
First Quarter

Hourly Weather History & Observations

Time (CST) Temp. Windchill Dew Point Humidity Pressure Visibility Wind Dir Wind Speed Gust Speed Precip Events Conditions
12:53 AM 30.0 °F 25.2 °F 19.9 °F 66% 30.30 in 10.0 mi North 4.6 mph - N/A   Clear
1:53 AM 30.0 °F 22.4 °F 16.0 °F 56% 30.30 in 10.0 mi North 8.1 mph - N/A   Clear
3:53 AM 27.0 °F 18.7 °F 15.1 °F 61% 30.31 in 10.0 mi North 8.1 mph - N/A   Clear
4:53 AM 27.0 °F 19.5 °F 16.0 °F 63% 30.30 in 10.0 mi North 6.9 mph - N/A   Clear
5:53 AM 26.1 °F 20.5 °F 16.0 °F 66% 30.31 in 10.0 mi NNE 4.6 mph - N/A   Clear
6:53 AM 27.0 °F 19.5 °F 16.0 °F 63% 30.34 in 10.0 mi NNE 6.9 mph - N/A   Clear
7:53 AM 28.0 °F 20.8 °F 16.0 °F 61% 30.35 in 10.0 mi NNE 6.9 mph - N/A   Clear
8:53 AM 28.9 °F 22.8 °F 15.1 °F 56% 30.38 in 10.0 mi NNE 5.8 mph - N/A   Clear
9:53 AM 30.0 °F 24.1 °F 16.0 °F 56% 30.37 in 10.0 mi NE 5.8 mph - N/A   Clear
10:53 AM 30.9 °F 23.5 °F 17.1 °F 57% 30.37 in 10.0 mi NNE 8.1 mph - N/A   Clear
11:53 AM 32.0 °F 27.5 °F 15.1 °F 50% 30.37 in 10.0 mi North 4.6 mph - N/A   Clear
12:53 PM 33.1 °F 26.1 °F 16.0 °F 50% 30.33 in 10.0 mi NNE 8.1 mph - N/A   Mostly Cloudy
1:53 PM 33.1 °F 25.5 °F 17.1 °F 52% 30.31 in 10.0 mi NE 9.2 mph - N/A   Mostly Cloudy
2:53 PM 34.0 °F 28.0 °F 17.1 °F 50% 30.27 in 10.0 mi ENE 6.9 mph - N/A   Scattered Clouds
3:53 PM 34.0 °F 31.0 °F 15.1 °F 46% 30.27 in 10.0 mi NE 3.5 mph - N/A   Overcast
4:53 PM 34.0 °F 29.8 °F 17.1 °F 50% 30.25 in 10.0 mi NE 4.6 mph - N/A   Overcast
5:53 PM 34.0 °F 28.8 °F 18.0 °F 52% 30.25 in 10.0 mi ENE 5.8 mph - N/A   Overcast
6:53 PM 34.0 °F 28.0 °F 17.1 °F 50% 30.26 in 10.0 mi NNE 6.9 mph - N/A   Overcast
7:53 PM 34.0 °F 31.0 °F 18.0 °F 52% 30.27 in 10.0 mi East 3.5 mph - N/A   Overcast
8:53 PM 34.0 °F - 18.0 °F 52% 30.25 in 10.0 mi Calm Calm - N/A   Overcast
9:53 PM 33.1 °F 26.1 °F 19.0 °F 56% 30.24 in 10.0 mi NE 8.1 mph - N/A   Mostly Cloudy
10:53 PM 34.0 °F 28.0 °F 17.1 °F 50% 30.24 in 10.0 mi East 6.9 mph - N/A   Overcast
11:53 PM 33.1 °F 30.0 °F 18.0 °F 54% 30.24 in 10.0 mi East 3.5 mph - N/A   Overcast